Wind_Speed
2 2 3 3 4 5 6 7 7 8 9 10 12 13 14 14 15 16 16 17 17 17 17 17 18 18 18 19 20 21 22 22 22 22 22 22 22 23 23 23 23 23 23
3 4 5 5 6 7 8 9 9 10 12 13 14 15 16 16 17 18 18 18 18 19 19 19 19 19 20 20 21 22 22 23 23 23 24 24 25 25 26 26 26 26 26
5 6 7 7 8 9 10 10 11 12 13 14 15 16 17 17 18 19 19 19 20 20 20 20 21 21 21 22 22 23 24 24 25 25 26 26 27 27 28 28 29 29 29
8 8 9 9 10 11 12 13 13 14 15 15 16 17 18 18 19 20 20 21 21 21 22 22 23 23 24 24 25 26 26 27 28 28 29 29 29 30 30 31 31 32 32
10 10 11 11 12 13 14 14 15 15 16 16 17 18 19 19 20 20 21 22 22 23 24 24 25 25 26 26 27 28 29 30 30 31 32 32 33 33 33 34 34 35 35
12 12 12 13 13 14 15 15 16 16 16 17 18 18 19 19 20 21 22 22 23 24 24 25 26 27 27 28 29 30 31 32 33 34 35 35 36 37 37 38 38 39 39
13 13 13 14 14 15 15 15 15 16 17 17 18 19 19 20 20 21 22 22 23 24 24 25 26 27 28 29 30 31 32 33 34 36 37 38 39 40 41 41 42 43 43
13 13 14 14 14 14 14 15 15 16 17 17 18 18 19 19 20 21 21 22 22 23 24 25 26 27 28 29 30 31 32 33 35 36 38 39 41 42 43 44 45 46 47
13 13 13 13 13 13 14 15 15 16 17 17 18 18 19 19 20 20 21 22 23 24 25 26 27 27 28 29 30 31 32 34 35 37 38 40 42 44 45 46 48 49 50
12 12 12 12 13 13 14 15 15 16 16 17 18 18 19 20 21 22 23 24 25 26 27 27 28 29 29 30 31 32 33 34 35 37 39 41 42 44 46 48 50 51 53
12 12 12 12 12 13 13 14 15 16 17 18 19 20 21 22 23 24 25 26 27 28 29 30 30 31 32 33 33 34 35 36 37 38 40 41 43 45 47 49 51 53 55
11 11 12 12 12 13 13 14 15 17 18 19 21 22 23 24 25 27 28 29 30 31 32 33 34 35 35 36 37 37 38 39 39 40 42 43 44 46 48 50 52 54 56
11 11 12 12 12 13 14 15 17 18 19 20 21 23 24 25 26 28 29 31 32 33 34 35 36 37 38 39 40 41 41 42 42 43 44 45 47 48 50 51 53 55 57
11 12 12 13 14 14 15 17 17 18 19 20 22 23 25 26 28 29 31 32 34 35 36 37 38 39 40 41 42 43 44 45 46 46 47 48 49 50 52 53 55 57 59
12 13 13 14 15 16 17 18 19 20 21 22 24 25 27 28 29 31 33 34 36 37 38 39 40 41 42 44 45 46 47 48 49 49 50 51 53 54 55 56 58 60 62
13 14 14 15 17 18 19 20 21 22 24 25 26 28 29 31 32 34 35 37 38 40 41 42 42 43 44 45 47 48 49 50 52 52 53 54 56 57 58 59 61 63 65
15 15 16 17 19 20 21 23 24 25 26 28 29 30 32 33 35 36 38 39 41 42 44 45 45 46 47 48 49 50 52 53 54 55 56 58 59 60 61 62 64 65 67
18 18 19 20 21 22 24 25 27 28 30 31 32 33 35 36 38 39 41 43 44 45 47 48 49 49 49 50 51 52 54 55 56 58 59 61 62 63 64 65 67 68 70
21 22 22 23 24 25 27 28 30 31 33 34 36 37 38 39 41 42 44 46 47 48 50 51 52 52 52 52 53 54 55 56 58 60 62 63 65 66 67 69 70 71 73
24 25 26 26 28 29 30 31 33 34 36 37 39 40 41 42 44 45 47 49 50 51 52 54 54 54 54 55 55 55 57 58 60 62 63 65 67 68 69 71 73 74 75
27 28 29 30 31 32 33 34 35 37 39 41 42 43 45 46 47 49 50 52 53 53 55 56 56 56 57 57 57 57 57 58 60 62 64 66 68 70 72 73 75 76 77
30 31 32 32 34 35 36 38 38 40 42 44 46 47 48 49 51 52 53 54 55 56 57 58 58 59 60 59 59 59 59 59 60 62 65 67 69 71 73 75 76 78 79
32 34 34 35 37 38 40 41 42 44 45 47 49 50 52 53 54 54 55 56 57 58 60 60 60 60 61 60 60 61 61 62 63 63 66 69 71 73 74 76 78 79 80
35 36 37 38 40 41 43 44 46 47 48 50 52 53 55 56 57 57 57 58 59 61 62 62 62 62 62 61 61 61 63 64 65 66 67 70 71 73 75 77 79 80 81
37 38 40 41 43 44 46 47 49 50 52 54 55 56 57 58 58 59 59 60 62 62 63 63 63 63 62 62 62 62 64 66 68 68 68 70 72 74 76 77 79 80 80
40 41 42 44 45 47 48 50 51 53 54 56 56 57 58 59 59 60 61 63 63 63 64 64 64 63 63 62 63 64 66 68 69 70 69 69 71 72 75 76 78 79 79
Wind_Direction
244 253 260 270 278 283 286 288 291 294 295 296 295 295 294 294 292 291 288 287 285 283 281 278 276 274 273 271 270 270 270 269 268 266 264 263 262 261 260 259 258 255 252
270 275 279 282 286 288 289 291 294 296 296 296 296 295 295 295 294 292 291 289 287 285 283 281 279 277 276 274 273 272 271 271 270 267 265 263 262 262 262 261 261 259 258
279 280 282 285 287 289 291 293 295 296 295 296 296 295 295 294 293 293 292 291 290 288 286 284 282 280 279 277 275 274 273 272 271 270 268 266 263 262 262 262 262 261 260
283 283 285 287 290 292 294 295 296 296 296 296 296 295 295 294 293 293 292 291 290 289 288 286 284 283 281 279 278 276 275 274 273 272 271 269 267 265 263 262 261 261 262
284 285 287 290 293 295 296 296 297 297 297 297 296 295 295 294 294 293 293 292 290 289 288 287 286 284 283 281 279 278 277 276 275 274 273 271 270 268 266 265 263 262 261
285 287 289 291 293 295 295 296 297 298 298 297 296 296 296 295 294 293 292 291 290 289 288 287 286 285 284 283 281 280 278 277 276 275 274 273 271 270 268 267 265 264 263
286 288 290 292 294 295 296 297 298 299 299 299 298 297 296 295 294 293 292 292 291 290 289 288 287 286 285 284 283 281 280 278 277 276 274 273 272 271 270 268 267 266 265
287 289 291 293 295 297 299 300 301 301 301 301 300 299 299 298 297 295 294 294 293 292 291 289 288 287 286 285 284 283 281 280 278 277 275 274 272 271 270 269 267 266 266
288 290 292 295 297 299 301 302 303 303 303 303 303 303 302 301 300 299 298 297 295 294 293 292 291 290 288 287 286 285 284 282 281 279 277 275 273 272 270 269 268 267 266
288 291 294 296 299 301 303 304 305 305 306 306 306 306 306 305 304 303 302 300 299 297 296 295 294 293 291 290 289 287 286 284 282 281 279 277 275 274 272 270 268 267 266
291 293 296 299 301 303 304 305 306 307 308 308 308 307 307 306 305 304 303 302 300 299 297 296 295 294 293 292 290 289 288 287 285 283 282 280 279 277 275 273 271 268 266
290 294 297 300 303 304 306 308 309 309 309 309 308 308 308 307 306 305 304 302 301 299 298 297 296 295 294 293 291 290 289 288 287 285 284 283 281 280 278 276 273 271 269
288 292 296 300 303 305 308 309 310 310 310 310 310 310 310 309 308 307 306 304 303 301 299 297 296 295 293 292 291 291 290 289 288 287 286 285 284 282 280 278 276 274 271
286 290 295 299 302 305 306 307 308 309 310 311 311 312 312 312 312 311 310 308 306 303 301 299 297 295 294 293 292 292 291 291 290 289 289 288 286 285 283 282 280 278 276
284 288 293 297 299 302 304 305 307 307 308 309 310 311 311 312 312 312 311 310 308 306 304 301 299 297 296 294 293 292 292 291 291 291 291 290 289 288 287 285 284 282 281
282 286 290 294 297 299 301 302 303 304 305 306 307 308 309 309 310 310 310 309 309 308 306 304 302 299 297 296 295 294 293 293 293 293 293 292 292 291 290 289 288 287 285
279 283 286 290 293 295 297 299 299 300 301 302 304 305 306 307 308 308 309 308 308 308 307 305 303 301 299 297 296 295 295 294 294 294 294 294 294 293 293 292 291 290 289
279 281 283 286 288 291 293 295 296 298 299 300 301 302 303 304 305 306 307 308 308 308 308 306 304 302 300 298 297 297 296 296 296 296 296 296 295 295 295 294 294 293 292
279 280 281 283 286 288 291 292 294 296 297 298 299 300 301 302 303 304 305 306 306 307 307 307 305 303 301 299 298 298 297 297 298 297 297 297 297 297 297 297 296 296 295
279 280 281 282 283 286 289 290 292 294 295 297 298 299 300 301 302 303 304 304 305 305 305 306 305 304 302 300 299 298 298 298 299 299 299 299 299 299 299 299 299 298 297
278 279 280 281 283 285 287 289 291 293 294 296 297 298 299 300 301 302 303 303 304 304 304 304 304 304 302 301 299 298 298 299 300 301 301 301 301 301 301 301 301 300 299
277 278 280 281 283 285 287 289 291 292 294 295 296 297 298 299 300 301 302 303 303 303 303 304 303 303 302 301 300 298 298 298 299 301 302 302 303 303 303 303 302 302 302
276 277 279 281 283 286 287 289 291 292 294 295 295 297 298 298 299 300 300 301 301 302 303 303 303 303 302 301 300 300 299 299 299 301 302 303 304 305 305 305 304 304 304
277 279 280 282 284 286 288 290 291 293 294 294 295 296 297 297 298 298 299 299 300 301 302 302 302 302 302 301 301 301 301 301 301 301 303 304 304 305 305 305 305 305 305
279 280 282 284 286 287 289 291 292 293 293 293 295 295 296 296 297 298 298 298 299 300 300 301 302 302 302 302 302 302 302 302 303 303 304 304 305 306 306 306 306 307 307
282 283 285 286 287 288 290 291 292 292 292 293 294 294 295 295 296 296 296 297 298 299 299 300 301 302 302 302 303 303 303 304 304 304 305 305 306 307 307 308 308 308 308
Height
5881 5880 5880 5880 5880 5879 5879 5878 5878 5877 5876 5876 5875 5874 5873 5872 5872 5871 5870 5869 5869 5868 5868 5868 5867 5867 5867 5866 5865 5865 5865 5865 5865 5866 5866 5866 5866 5866 5867 5867 5868 5869 5869
5880 5880 5880 5879 5879 5878 5878 5877 5876 5875 5874 5873 5872 5871 5870 5869 5868 5867 5867 5866 5865 5864 5864 5864 5863 5863 5863 5862 5861 5861 5861 5861 5861 5861 5861 5862 5862 5862 5862 5863 5863 5864 5865
5879 5879 5878 5878 5877 5876 5876 5875 5874 5873 5872 5871 5870 5868 5867 5866 5865 5864 5863 5862 5861 5860 5860 5859 5859 5858 5858 5857 5857 5856 5856 5856 5856 5856 5856 5857 5857 5857 5858 5858 5858 5859 5860
5878 5877 5876 5876 5875 5874 5873 5872 5871 5870 5869 5868 5867 5865 5864 5863 5862 5860 5859 5858 5857 5856 5855 5854 5854 5853 5853 5852 5852 5851 5850 5850 5850 5850 5850 5850 5851 5852 5852 5852 5853 5853 5854
5876 5875 5874 5873 5872 5871 5870 5869 5868 5867 5866 5864 5863 5862 5861 5859 5858 5856 5855 5854 5852 5851 5850 5849 5848 5848 5847 5846 5846 5845 5844 5844 5843 5843 5843 5843 5844 5845 5845 5846 5846 5847 5848
5873 5872 5871 5871 5870 5868 5867 5866 5865 5863 5862 5861 5859 5858 5857 5855 5854 5852 5851 5849 5848 5846 5845 5844 5843 5842 5841 5840 5839 5838 5838 5837 5837 5836 5836 5836 5836 5836 5837 5838 5838 5839 5840
5871 5870 5869 5868 5866 5865 5864 5863 5861 5860 5859 5857 5856 5854 5853 5851 5850 5848 5847 5845 5843 5842 5840 5839 5837 5836 5835 5834 5833 5832 5831 5830 5829 5829 5828 5828 5828 5828 5828 5829 5830 5830 5831
5868 5867 5865 5864 5863 5862 5860 5859 5858 5856 5855 5853 5852 5850 5849 5847 5845 5844 5842 5840 5839 5837 5835 5834 5832 5830 5829 5827 5826 5825 5823 5822 5821 5821 5820 5819 5819 5819 5819 5819 5820 5821 5821
5865 5863 5862 5861 5860 5858 5857 5856 5854 5853 5851 5849 5848 5846 5845 5843 5841 5839 5837 5836 5834 5832 5830 5828 5826 5825 5823 5821 5819 5818 5816 5815 5813 5812 5811 5811 5810 5809 5809 5809 5809 5810 5810
5862 5860 5859 5858 5856 5855 5853 5852 5851 5849 5847 5846 5844 5842 5840 5838 5836 5834 5832 5830 5828 5826 5824 5822 5820 5818 5816 5814 5812 5810 5809 5807 5805 5804 5802 5801 5800 5799 5799 5798 5798 5798 5799
5858 5857 5856 5854 5853 5852 5850 5849 5847 5845 5844 5842 5840 5838 5836 5834 5831 5829 5827 5825 5823 5820 5818 5815 5813 5811 5808 5806 5804 5802 5800 5798 5796 5794 5793 5791 5790 5788 5787 5786 5786 5786 5786
5855 5854 5852 5851 5850 5848 5847 5845 5843 5842 5840 5838 5835 5833 5831 5829 5826 5824 5821 5819 5816 5814 5811 5808 5806 5803 5800 5798 5795 5793 5791 5788 5786 5784 5782 5780 5778 5777 5775 5774 5773 5772 5772
5852 5851 5849 5848 5846 5845 5843 5841 5839 5838 5835 5833 5831 5828 5826 5823 5820 5818 5815 5812 5809 5806 5803 5800 5797 5794 5791 5788 5785 5783 5780 5777 5775 5773 5770 5768 5766 5764 5762 5760 5759 5757 5756
5848 5847 5846 5844 5843 5841 5839 5838 5836 5834 5831 5829 5826 5823 5820 5817 5814 5811 5808 5805 5802 5798 5795 5792 5789 5785 5782 5778 5775 5771 5768 5765 5763 5760 5757 5755 5752 5750 5747 5745 5743 5741 5739
5845 5843 5842 5840 5839 5837 5835 5833 5831 5829 5827 5824 5821 5818 5815 5812 5808 5805 5801 5798 5794 5790 5787 5783 5779 5775 5772 5768 5764 5760 5756 5753 5749 5746 5743 5740 5737 5734 5731 5729 5726 5723 5721
5841 5839 5838 5836 5835 5833 5831 5829 5826 5824 5821 5819 5816 5812 5809 5806 5802 5798 5794 5790 5786 5782 5778 5774 5770 5765 5761 5757 5752 5748 5744 5740 5736 5732 5729 5725 5722 5718 5715 5711 5708 5704 5701
5837 5835 5834 5832 5830 5828 5826 5823 5821 5818 5816 5813 5809 5806 5802 5799 5795 5791 5786 5782 5778 5773 5769 5764 5759 5755 5750 5745 5740 5736 5731 5726 5722 5717 5713 5709 5705 5701 5697 5693 5689 5685 5680
5832 5830 5829 5827 5825 5822 5820 5818 5815 5812 5809 5806 5802 5799 5795 5791 5787 5782 5778 5773 5768 5763 5758 5754 5748 5744 5739 5734 5728 5723 5718 5712 5707 5702 5697 5692 5688 5683 5679 5674 5669 5664 5659
5827 5825 5823 5821 5819 5817 5814 5811 5809 5805 5802 5799 5795 5791 5787 5782 5778 5773 5768 5764 5758 5753 5748 5742 5737 5731 5726 5721 5716 5710 5704 5698 5692 5687 5681 5675 5670 5664 5659 5654 5648 5642 5636
5821 5819 5817 5815 5813 5810 5807 5804 5801 5798 5794 5790 5786 5782 5778 5773 5769 5764 5759 5753 5748 5742 5737 5731 5725 5719 5713 5708 5702 5696 5690 5684 5677 5671 5664 5658 5652 5645 5639 5633 5627 5620 5613
5814 5812 5810 5808 5805 5802 5800 5796 5794 5790 5786 5782 5777 5773 5768 5764 5759 5753 5748 5742 5736 5731 5725 5719 5713 5706 5700 5694 5688 5683 5677 5670 5663 5655 5647 5640 5633 5626 5619 5612 5604 5597 5590
5807 5804 5802 5800 5797 5794 5791 5788 5785 5781 5777 5772 5767 5762 5758 5753 5748 5742 5736 5731 5724 5719 5712 5706 5700 5693 5686 5680 5674 5667 5662 5657 5650 5641 5631 5623 5614 5607 5598 5590 5582 5574 5565
5798 5796 5794 5791 5788 5785 5781 5778 5775 5771 5767 5762 5756 5752 5747 5741 5736 5730 5724 5718 5712 5706 5700 5693 5686 5679 5672 5666 5659 5652 5645 5639 5633 5626 5616 5606 5596 5587 5578 5568 5559 5549 5540
5790 5788 5785 5782 5779 5775 5771 5768 5764 5760 5756 5751 5745 5740 5735 5729 5723 5717 5711 5705 5699 5693 5686 5679 5673 5666 5658 5651 5644 5637 5629 5622 5615 5609 5601 5589 5579 5568 5558 5547 5536 5526 5515
5782 5779 5776 5773 5769 5765 5761 5757 5753 5749 5744 5738 5733 5728 5722 5716 5710 5704 5697 5691 5685 5679 5672 5665 5658 5651 5644 5636 5629 5621 5614 5605 5597 5590 5584 5573 5561 5549 5537 5526 5515 5503 5493
5773 5770 5766 5763 5759 5755 5750 5746 5741 5737 5731 5726 5720 5714 5708 5702 5697 5690 5683 5677 5671 5664 5657 5650 5643 5636 5629 5621 5613 5605 5597 5589 5580 5571 5564 5556 5545 5532 5518 5505 5493 5481 5470